Location: Home
(42.5358°N, 72.7383°W)
Time: 17:42:57
(UTC-05:00)

Tiros 1 - Pass Details

Date: 05 December 2021
Orbit: 629 x 664 km, 48.4° (Epoch: 18 January)

Event Time Altitude Azimuth Distance (km) Brightness Sun altitude
Rises 19:03:34 0° 260° (W) 2,918 11.7 -29.7°
Reaches altitude 10° 19:05:56 10° 265° (W) 2,016 10.6 -30.2°
Enters shadow 19:08:56 36° 288° (WNW) 1,005 8.5 -30.7°
Maximum altitude 19:10:29 53° 344° (NNW) 782 - -31.0°
Drops below altitude 10° 19:15:05 10° 61° (ENE) 2,041 - -31.9°
Sets 19:17:29 0° 66° (ENE) 2,958 - -32.3°
